Overview Statistics Trail Chart Weather Telemetry Raw packets
 

This is the latest recevied weather packets stored in our database for station/object DN9CHO-13. If no packets are shown the sender has not sent any weather packets the latest 10 day(s).

<< 47 48 49 50 51 52 53 >>
Time Temp. Humidity Pressure Rain* Wind** Luminosity Snow
1787859017 23.33° C 76% 1010.2 hPa 0 mm - 0 W/m² -
1787858433 23.33° C 75% 1010.2 hPa 0 mm - 0 W/m² -
1787857829 23.33° C 75% 1010.6 hPa 0 mm - 0 W/m² -
1787857226 23.33° C 75% 1010.4 hPa 0 mm - 0 W/m² -
1787856622 23.33° C 75% 1010.4 hPa 0 mm - 0 W/m² -
1787856018 23.33° C 76% 1010.5 hPa 0 mm - 0 W/m² -
1787855435 23.89° C 76% 1010.5 hPa 0 mm - 0 W/m² -
1787854831 23.89° C 76% 1010.5 hPa 0 mm - 0 W/m² -
1787854227 23.89° C 76% 1010.6 hPa 0 mm - 0 W/m² -
1787853623 24.44° C 75% 1010.9 hPa 0 mm - 1 W/m² -
1787853020 24.44° C 74% 1011 hPa 0 mm - 1 W/m² -
1787852416 24.44° C 75% 1010.9 hPa 0 mm - 2 W/m² -
1787851832 25° C 75% 1011.1 hPa 0 mm - 2 W/m² -
1787851229 25° C 74% 1011.2 hPa 0 mm - 2 W/m² -
1787850625 25° C 75% 1011.2 hPa 0 mm - 5 W/m² -
1787850021 25° C 76% 1011.2 hPa 0 mm - 5 W/m² -
1787849418 25.56° C 76% 1011.3 hPa 0 mm - 8 W/m² -
1787848834 25.56° C 74% 1011.3 hPa 0 mm - 6 W/m² -
1787848231 26.11° C 74% 1011.5 hPa 0 mm - 7 W/m² -
1787847627 26.11° C 71% 1011.5 hPa 0 mm - 8 W/m² -
1787847023 26.67° C 72% 1011.7 hPa 0 mm - 9 W/m² -
1787846419 26.67° C 72% 1011.8 hPa 0 mm - 14 W/m² -
1787845816 26.67° C 71% 1012 hPa 0 mm - 13 W/m² -
1787845232 26.67° C 70% 1012 hPa 0 mm - 13 W/m² -
1787844629 27.22° C 71% 1012.1 hPa 0 mm - 12 W/m² -

* Rain latest hour (hover to see other rain measurements)
** Current wind speed in m/s (hover to see current wind gust speed)